カタログに戻る

FENGYUN 1C DEB

運用中SSO
NORAD 31783·DEBRIS·🇨🇳 China

打ち上げ May 10, 1999 から Taiyuan Satellite Launch Center

Loading…

次のパス (今後24時間)

TLE

最新Source: Space-Track

元期: Sep 14, 2026, 19:05 UTC

1 31783U 99025CGJ 26257.79527596  .00000446  00000-0  26708-3 0  9999
2 31783  98.6077 259.1485 0102616 346.6068 188.9683 14.09300615931087

AllMySatでFENGYUN 1C DEBをリアルタイム追跡

Download on the App Store